Regional Weather Roundup
Issued by NWS Boston, MA

Current Version | Previous Version | Text Only | Print | Product List | Glossary On
Versions: 1 2 3 4 5 6 7 8 9 10 11 12 13 14 15 16 17 18 19 20 21 22 23 24 25 26 27 28 29 30 31 32 33 34 35 36 37 38 39 40 41 42 43 44 45 46 47 48 49 50
000
ASUS41 KBOX 041710
RWRBOX

REGIONAL WEATHER ROUNDUP
NATIONAL WEATHER SERVICE TAUNTON MA
100 PM EDT TUE AUG 04 2015

NOTE:  "FAIR" INDICATES FEW OR NO CLOUDS BELOW 12,000 FEET WITH NO
SIGNIFICANT WEATHER AND/OR OBSTRUCTIONS TO VISIBILITY.  THE FOLLOWING
OBSERVATION LOCATIONS DO NOT REPORT PRESENT WEATHER...PROVINCETOWN...
SMITHFIELD...BLOCK ISLAND...KEENE...AND OXFORD.

MAZALL-041800-
EASTERN MASSACHUSETTS

CITY           SKY/WX    TMP DP  RH WIND       PRES   REMARKS
BOSTON         MOSUNNY   84  65  52 S14       29.81F
BEVERLY        MOSUNNY   82  70  66 S7        29.81F
LAWRENCE       CLOUDY    81  66  60 SW7       29.83F
BEDFORD        MOSUNNY   86  65  49 SW9       29.79F
BLUE HILL        N/A     84  67  56 SW14G22   29.84S
NORWOOD        PTSUNNY   84  68  58 S12       29.81F
MARSHFIELD     SUNNY     84  66  54 SW9G18    29.84F
PLYMOUTH       SUNNY     86  64  47 SW13G22   29.84F
TAUNTON        SUNNY     85  64  49 VRB7G18   29.83F
NEW BEDFORD    SUNNY     84  67  56 S13       29.84F
$$

MAZALL-041800-
CAPE COD AND THE ISLANDS

CITY           SKY/WX    TMP DP  RH WIND       PRES   REMARKS
FALMOUTH       NOT AVBL
HYANNIS        SUNNY     79  70  74 MISG      29.85F
CHATHAM        MOSUNNY   78  70  76 VRB6      29.88F
PROVINCETOWN   SUNNY     81  66  61 S14G21    29.84F
NANTUCKET      CLOUDY    77  73  87 S13       29.88F
MARTHAS VNYRD  PTSUNNY   82  73  74 S15       29.86F
$$

MAZALL-041800-
CENTRAL AND WESTERN MASSACHUSETTS

CITY           SKY/WX    TMP DP  RH WIND       PRES   REMARKS
WORCESTER      MOSUNNY   82  60  47 SW10G23   29.85F
FITCHBURG      PTSUNNY   81  66  60 SW6       29.82F
ORANGE         LGT RAIN  77  67  71 S5        29.80F
SPRINGFIELD    PTSUNNY   83  66  56 S13       29.79F
WESTFIELD      MOSUNNY   83  65  54 S5        29.80F
NORTH ADAMS    LGT RAIN  72  68  87 CALM      29.85R
PITTSFIELD     PTSUNNY   77  60  55 CALM      29.82F
$$

RIZALL-041800-
RHODE ISLAND

CITY           SKY/WX    TMP DP  RH WIND       PRES   REMARKS
PROVIDENCE     SUNNY     84  67  56 S12       29.84F
NEWPORT        SUNNY     79  69  71 S10       29.85F
BLOCK ISLAND     N/A     81  73  78 SW15      29.88S
SMITHFIELD     MOSUNNY   81  70  69 S5        29.85F
WESTERLY       SUNNY     79  68  69 S8        29.86F
$$

CTZALL-041800-
CONNECTICUT

CITY           SKY/WX    TMP DP  RH WIND       PRES   REMARKS
BRADLEY INTL   PTSUNNY   87  65  47 S10       29.80F
HARTFORD       PTSUNNY   85  65  51 SW8       29.81F
BRIDGEPORT     SUNNY     86  67  52 SW8       29.84F
DANBURY        SUNNY     82  63  52 SW12      29.86F
GROTON         SUNNY     77  66  68 S7        29.84F
NEW HAVEN      MOSUNNY   83  68  60 S12G18    29.84F
CHESTER        NOT AVBL
MERIDEN        PTSUNNY   86  64  47 SW8       29.83S
WILLIMANTIC    MOSUNNY   85  66  53 S10       29.83F
OXFORD         MOSUNNY   82  64  54 W6        29.88S
$$

MEZ002-015-021-024-NHZ003-005-008-011-012-014-VTZ005-008-041800-
NORTHERN NEW ENGLAND

CITY           SKY/WX    TMP DP  RH WIND       PRES   REMARKS
PORTLAND ME    MOSUNNY   79  64  60 S9        29.81F
BANGOR ME      PTSUNNY   77  66  68 SE12      29.79F
CONCORD NH     SUNNY     83  62  49 VRB3      29.80F
MANCHESTER NH  PTSUNNY   84  66  54 SE12      29.79F
NASHUA NH      PTSUNNY   77  72  84 SE5       29.82S
PORTSMOUTH NH  MOSUNNY   80  68  67 E12       29.80F
JAFFREY NH     MOSUNNY   81  61  50 VRB7      29.84F
KEENE NH       MOSUNNY   82  61  47 CALM      29.80F
BURLINGTON VT  PTSUNNY   71  60  68 SE9       29.83R
MT. WASHINGTON PTSUNNY   54  46  76 W21         N/A
$$

NYZ052-076-041800-
EASTERN NEW YORK

CITY           SKY/WX    TMP DP  RH WIND       PRES   REMARKS
ALBANY         PTSUNNY   81  66  60 NW7       29.82F
NEW YORK CITY  MOSUNNY   88  63  43 W9G20     29.84F
$$

ANZALL-041800-
MARINE OBSERVATIONS

STATION/POSITION TIME  TEMP    WIND        PRES    VSBY  WAVE
                       AIR SEA DIR/SP/G                  HT/PER
                 (UTC) (F)     (DEG/KT/KT) (MB)    (MI)  (FT/S)
BOSTON BUOY      1650   71 69  160/ 10/ 14 1010.0F         1/ 6
BUZZARDS BAY     1600          190/  5/  6 1012.4F
NANTUCKET SOUND  1650   75 75  200/  8/ 10 1011.1F         1/ 6
MASS BAY-STELLWA 1604   68 64  140/  8/ 10   N/A    1 7/8  2/ 6
ISLE OF SHOALS   1600   66     130/ 13/ 13 1009.7F
S OF BLOCK IS    1608      75                N/A           7/ 8
$$

......................KEY.........................
  SKY/WX - SKY CONDITION/PRESENT WEATHER
  TMP    - TEMPERATURE IN FAHRENHEIT
  DWPT   - DEWPOINT IN FAHRENHEIT
  RH     - RELATIVE HUMIDITY IN PERCENT
  WIND   - DIRECTION AND SPEED IN MPH
  PRES   - MEAN SEA LEVEL PRESSURE IN INCHES OF HG
  WCI    - WIND CHILL INDEX
  VSB    - VISIBILITY IN MILES
  HX     - HEAT INDEX
  TC     - TEMPERATURE IN CELSIUS
  VRB    - VARIABLE WIND DIRECTION
  N/A    - NOT AVAILABLE


USA.gov is the U.S. government's official web portal to all federal, state and local government web resources and services.